Location: Carella
(45.8167°N, 9.2667°E)
Time: 13:46:36
(UTC+00:00)

USA 186 - Pass Details

Date: 30 March 2020
Orbit: 263 x 447 km, 96.9° (Epoch: 21 May)

Event Time Altitude Azimuth Distance (km) Brightness Sun altitude
Exits shadow 19:18:58 - 185° (S) 2,220 5.2 -15.9°
Reaches altitude 10° 19:20:30 10° 192° (SSW) 1,595 4.6 -16.1°
Maximum altitude 19:23:45 39° 262° (W) 702 3.3 -16.6°
Drops below altitude 10° 19:26:59 10° 333° (NNW) 1,582 5.4 -17.1°
Sets 19:29:05 0° 341° (NNW) 2,438 6.3 -17.5°
